TimePST,TemperatureF,Dew PointF,Humidity,Sea Level PressureIn,VisibilityMPH,Wind Direction,Wind SpeedMPH,Gust SpeedMPH,PrecipitationIn,Events,Conditions,WindDirDegrees,DateUTC
12:53 AM,46.0,37.0,71,30.02,10.0,NNW,12.7,-,N/A,,Overcast,330,2014-03-07 08:53:00
1:53 AM,44.1,37.0,76,30.04,10.0,NW,11.5,-,N/A,,Mostly Cloudy,310,2014-03-07 09:53:00
2:53 AM,45.0,37.0,74,30.06,10.0,NW,15.0,-,N/A,,Overcast,320,2014-03-07 10:53:00
3:53 AM,44.1,36.0,73,30.09,10.0,NW,16.1,-,N/A,,Clear,310,2014-03-07 11:53:00
4:53 AM,43.0,35.1,74,30.11,10.0,WNW,17.3,-,N/A,,Clear,290,2014-03-07 12:53:00
5:53 AM,43.0,35.1,74,30.14,10.0,NW,8.1,-,N/A,,Mostly Cloudy,320,2014-03-07 13:53:00
6:53 AM,41.0,34.0,76,30.17,10.0,WNW,5.8,-,N/A,,Partly Cloudy,290,2014-03-07 14:53:00
7:53 AM,43.0,35.1,74,30.21,10.0,NW,10.4,-,N/A,,Clear,310,2014-03-07 15:53:00
8:53 AM,46.0,36.0,68,30.24,10.0,NW,5.8,-,N/A,,Clear,310,2014-03-07 16:53:00
9:53 AM,48.0,35.1,61,30.25,10.0,NW,13.8,-,N/A,,Clear,310,2014-03-07 17:53:00
10:53 AM,48.0,35.1,61,30.24,10.0,NW,18.4,-,N/A,,Clear,310,2014-03-07 18:53:00
11:53 AM,50.0,35.1,57,30.24,10.0,NW,13.8,-,N/A,,Clear,310,2014-03-07 19:53:00
12:53 PM,53.1,35.1,50,30.22,10.0,NW,16.1,-,N/A,,Clear,320,2014-03-07 20:53:00
1:53 PM,55.9,34.0,44,30.20,10.0,WNW,19.6,26.5,N/A,,Partly Cloudy,300,2014-03-07 21:53:00
2:53 PM,57.9,33.1,39,30.19,10.0,NW,12.7,-,N/A,,Clear,310,2014-03-07 22:53:00
3:53 PM,55.0,35.1,47,30.18,10.0,NW,12.7,-,N/A,,Clear,310,2014-03-07 23:53:00
4:53 PM,55.0,36.0,49,30.17,10.0,NW,12.7,-,N/A,,Clear,320,2014-03-08 00:53:00
5:53 PM,46.9,35.1,63,30.19,10.0,WNW,6.9,-,N/A,,Clear,300,2014-03-08 01:53:00
6:53 PM,43.0,34.0,71,30.22,10.0,NW,5.8,-,N/A,,Clear,320,2014-03-08 02:53:00
7:53 PM,41.0,33.1,73,30.23,10.0,Calm,Calm,-,N/A,,Clear,0,2014-03-08 03:53:00
8:53 PM,36.0,30.0,79,30.23,10.0,ESE,3.5,-,N/A,,Clear,110,2014-03-08 04:53:00
9:53 PM,36.0,30.0,79,30.22,10.0,Calm,Calm,-,N/A,,Clear,0,2014-03-08 05:53:00
10:53 PM,36.0,30.0,79,30.22,10.0,ENE,3.5,-,N/A,,Clear,70,2014-03-08 06:53:00
11:53 PM,32.0,27.0,82,30.20,10.0,Calm,Calm,-,N/A,,Clear,0,2014-03-08 07:53:00